Flag for Germany Weather past 2 weeks in Aschersleben, Saxony-Anhalt, Germany

Now
64 °F

Sprinkles. Overcast.


Feels Like: 64 °F
Forecast: 49 / 55 °F
Wind: 2 mph from Northwest

Location: Magdeburg

Current Time: Sep 21, 2014 at 12:18:38 PM

Latest Report: Sep 21, 2014 at 12:00 PM


Visibility: 6 mi

Pressure: 29.90 "Hg

Humidity: 84%

Dew point: 58 °F

Location of AscherslebenLocation

Historic Weather in Aschersleben — Graph

°F

Aschersleben temperature yesterday

Maximum temperature yesterday: 71 °F (at 2:00 PM)
Minimum temperature yesterday: 61 °F (at 3:00 AM)
Average temperature yesterday: 64 °F

Past Weeks' High & Low Weather Summary

 TemperatureHumidityPressure
High80 °F (Sep 6, 4:00 PM)98% (Sep 7, 3:00 AM)30.19 "Hg (Sep 7, 3:00 AM)
Low52 °F (Sep 9, 4:00 AM)43% (Sep 17, 6:00 PM)29.85 "Hg (Sep 6, 6:00 PM)
Average63 °F85%30.02 "Hg
* Reported Sep 6 10:00 AM — Sep 21 10:00 AM, Aschersleben, Weather by CustomWeather, © 2014

Note: Actual official high and low records may vary slightly from our data, if they occured in-between our weather recording intervals... More about our weather records

Advertising

Aschersleben weather history for previous 24 hours

 ConditionsComfort  
Time TempWeatherWind HumidityBarometerVisibility
10:00 AM
Sep 21
62 °FFog.2 mph89%29.90 "Hg3 mi
9:00 AM61 °FLow clouds.1 mph94%29.89 "Hg2 mi
8:00 AM62 °FLight rain. Overcast.3 mph92%29.89 "Hg2 mi
7:00 AM62 °FFog.1 mph95%29.88 "Hg1 mi
6:00 AM62 °FFog.1 mph96%29.88 "Hg1 mi
4:00 AM60 °FPassing clouds.2 mph98%29.89 "Hg1 mi
3:00 AM59 °FClear.1 mph98%29.90 "Hg1 mi
2:00 AM60 °FFog.1 mph97%29.91 "Hg1 mi
1:00 AM61 °FFog.1 mph96%29.91 "Hg1 mi
12:00 AM64 °FFog.1 mph94%29.90 "Hg2 mi
10:00 PM
Sep 20
64 °FFog.1 mph96%29.91 "Hg1 mi
9:00 PM65 °FFog.1 mph95%29.91 "Hg2 mi
8:00 PM65 °FOvercast.1 mph93%29.90 "Hg2 mi
3:00 PM71 °FPartly sunny.2 mph77%29.90 "Hg4 mi
2:00 PM71 °FPartly sunny.1 mph79%29.91 "Hg4 mi
1:00 PM70 °FFog.1 mph82%29.92 "Hg2 mi
12:00 PM68 °FPartly sunny.1 mph86%29.93 "Hg2 mi
Weather by CustomWeather, © 2014

See weather overviewHow to use our weather pages